This is the latest recevied weather packets stored in our database for station/object SR9NLI. If no packets are shown the sender has not sent any weather packets the latest 1 day(s).
| Time | Temp. | Humidity | Pressure | Rain* | Wind** | Luminosity | Snow |
|---|---|---|---|---|---|---|---|
| 1778013259 | 17.22° C | 100% | 949.8 hPa | - | 0.89 m/s, 187° | - | - |
| 1778013136 | 17.78° C | 100% | 949.7 hPa | - | 1.79 m/s, 177° | - | - |
| 1778013013 | 17.78° C | 100% | 949.9 hPa | - | 2.24 m/s, 176° | - | - |
| 1778012953 | 17.78° C | 100% | 949.8 hPa | - | 1.34 m/s, 180° | - | - |
| 1778012890 | 17.78° C | 100% | 949.9 hPa | - | 0.89 m/s, 182° | - | - |
| 1778012767 | 17.78° C | 100% | 949.8 hPa | - | 0.89 m/s, 172° | - | - |
| 1778012644 | 17.78° C | 100% | 949.8 hPa | - | 1.34 m/s, 178° | - | - |
| 1778012584 | 17.78° C | 100% | 949.8 hPa | - | 1.34 m/s, 183° | - | - |
| 1778012522 | 17.78° C | 100% | 949.9 hPa | - | 1.34 m/s, 183° | - | - |
| 1778012398 | 17.78° C | 100% | 949.8 hPa | - | 1.79 m/s, 174° | - | - |
| 1778012275 | 17.78° C | 100% | 949.8 hPa | - | 1.79 m/s, 173° | - | - |
| 1778012215 | 17.78° C | 100% | 949.9 hPa | - | 1.34 m/s, 174° | - | - |
| 1778012152 | 17.78° C | 100% | 949.9 hPa | - | 1.34 m/s, 177° | - | - |
| 1778012030 | 17.78° C | 100% | 949.9 hPa | - | 1.34 m/s, 178° | - | - |
| 1778011906 | 18.33° C | 100% | 949.9 hPa | - | 1.79 m/s, 177° | - | - |
| 1778011846 | 18.33° C | 100% | 949.9 hPa | - | 1.79 m/s, 179° | - | - |
| 1778011783 | 18.33° C | 100% | 949.9 hPa | - | 2.68 m/s, 174° | - | - |
| 1778011661 | 18.33° C | 100% | 949.9 hPa | - | 2.68 m/s, 173° | - | - |
| 1778011538 | 18.33° C | 100% | 949.9 hPa | - | 1.79 m/s, 171° | - | - |
| 1778011478 | 18.33° C | 100% | 949.9 hPa | - | 1.79 m/s, 175° | - | - |
| 1778011416 | 18.33° C | 100% | 949.9 hPa | - | 1.79 m/s, 173° | - | - |
| 1778011293 | 18.33° C | 100% | 949.9 hPa | - | 2.24 m/s, 170° | - | - |
| 1778011171 | 18.33° C | 100% | 950 hPa | - | 2.24 m/s, 171° | - | - |
| 1778011110 | 18.33° C | 100% | 949.9 hPa | - | 1.79 m/s, 182° | - | - |
| 1778011047 | 18.33° C | 100% | 949.9 hPa | - | 1.34 m/s, 183° | - | - |
* Rain since midnight (hover to see other rain measurements)
** Current wind speed in m/s (hover to see current wind gust speed)